Time,TemperatureF,DewpointF,PressureIn,WindDirection,WindDirectionDegrees,WindSpeedMPH,WindSpeedGustMPH,Humidity,HourlyPrecipIn,Conditions,Clouds,dailyrainin,SoftwareType,DateUTC
2013-02-19 00:02:00,27.0,19.0,30.06,West,270,9.0,12.0,70,-99.99,,,-99.99,,2013-02-19 06:02:00,
2013-02-19 00:11:00,27.0,19.0,30.06,WNW,292,8.0,13.0,71,-99.99,,,-99.99,,2013-02-19 06:11:00,
2013-02-19 00:21:00,27.0,19.0,30.07,WNW,292,8.0,14.0,69,-99.99,,,-99.99,,2013-02-19 06:21:00,
2013-02-19 00:32:00,27.0,18.0,30.07,NW,315,11.0,16.0,68,-99.99,,,-99.99,,2013-02-19 06:32:00,
2013-02-19 00:42:00,28.0,18.0,30.07,WNW,292,12.0,16.0,67,-99.99,,,-99.99,,2013-02-19 06:42:00,
2013-02-19 00:52:00,27.0,18.0,30.08,WNW,292,11.0,15.0,68,-99.99,,,-99.99,,2013-02-19 06:52:00,
2013-02-19 01:01:00,27.0,18.0,30.08,WNW,292,9.0,13.0,68,-99.99,,,-99.99,,2013-02-19 07:01:00,
2013-02-19 01:11:00,27.0,17.0,30.09,WNW,292,13.0,20.0,64,-99.99,,,-99.99,,2013-02-19 07:11:00,
2013-02-19 01:21:00,27.0,18.0,30.09,West,270,8.0,12.0,68,-99.99,,,-99.99,,2013-02-19 07:21:00,
2013-02-19 01:32:00,26.0,18.0,30.09,WNW,292,8.0,13.0,69,-99.99,,,-99.99,,2013-02-19 07:32:00,
2013-02-19 01:42:00,26.0,18.0,30.09,West,270,7.0,9.0,69,-99.99,,,-99.99,,2013-02-19 07:42:00,
2013-02-19 01:52:00,26.0,17.0,30.09,WNW,292,8.0,12.0,69,-99.99,,,-99.99,,2013-02-19 07:52:00,
2013-02-19 02:02:00,26.0,17.0,30.09,WNW,292,8.0,14.0,68,-99.99,,,-99.99,,2013-02-19 08:02:00,
2013-02-19 02:11:00,26.0,16.0,30.09,WNW,292,11.0,15.0,65,-99.99,,,-99.99,,2013-02-19 08:11:00,
2013-02-19 02:21:00,26.0,17.0,30.10,WNW,292,9.0,13.0,68,-99.99,,,-99.99,,2013-02-19 08:21:00,
2013-02-19 02:31:00,26.0,16.0,30.10,West,270,8.0,13.0,68,-99.99,,,-99.99,,2013-02-19 08:31:00,
2013-02-19 02:42:00,25.0,17.0,30.10,WNW,292,7.0,10.0,70,-99.99,,,-99.99,,2013-02-19 08:42:00,
2013-02-19 02:52:00,25.0,17.0,30.10,WSW,247,5.0,7.0,73,-99.99,,,-99.99,,2013-02-19 08:52:00,
2013-02-19 03:01:00,24.0,17.0,30.10,West,270,6.0,8.0,73,-99.99,,,-99.99,,2013-02-19 09:01:00,
2013-02-19 03:11:00,25.0,17.0,30.10,West,270,7.0,9.0,71,-99.99,,,-99.99,,2013-02-19 09:11:00,
2013-02-19 03:21:00,25.0,17.0,30.09,West,270,6.0,8.0,72,-99.99,,,-99.99,,2013-02-19 09:21:00,
2013-02-19 03:32:00,24.0,17.0,30.10,West,270,6.0,9.0,73,-99.99,,,-99.99,,2013-02-19 09:32:00,
2013-02-19 03:42:00,24.0,17.0,30.10,West,270,5.0,7.0,74,-99.99,,,-99.99,,2013-02-19 09:42:00,
2013-02-19 03:52:00,24.0,17.0,30.11,WSW,247,6.0,8.0,74,-99.99,,,-99.99,,2013-02-19 09:52:00,
2013-02-19 04:01:00,24.0,17.0,30.10,West,270,6.0,9.0,74,-99.99,,,-99.99,,2013-02-19 10:01:00,
2013-02-19 04:11:00,24.0,17.0,30.10,West,270,6.0,10.0,75,-99.99,,,-99.99,,2013-02-19 10:11:00,
2013-02-19 04:21:00,25.0,18.0,30.10,WNW,292,8.0,11.0,73,-99.99,,,-99.99,,2013-02-19 10:21:00,
2013-02-19 04:31:00,25.0,17.0,30.11,NW,315,8.0,12.0,72,-99.99,,,-99.99,,2013-02-19 10:31:00,
2013-02-19 04:41:00,25.0,18.0,30.11,WNW,292,8.0,12.0,73,-99.99,,,-99.99,,2013-02-19 10:41:00,
2013-02-19 04:51:00,25.0,18.0,30.12,West,270,7.0,12.0,75,-99.99,,,-99.99,,2013-02-19 10:51:00,
2013-02-19 05:01:00,25.0,18.0,30.12,WNW,292,8.0,12.0,75,-99.99,,,-99.99,,2013-02-19 11:01:00,
2013-02-19 05:11:00,25.0,18.0,30.13,West,270,12.0,21.0,73,-99.99,,,-99.99,,2013-02-19 11:11:00,
2013-02-19 05:21:00,25.0,18.0,30.12,WNW,292,7.0,11.0,74,-99.99,,,-99.99,,2013-02-19 11:21:00,
2013-02-19 05:32:00,25.0,17.0,30.13,NW,315,9.0,15.0,73,-99.99,,,-99.99,,2013-02-19 11:32:00,
2013-02-19 05:42:00,25.0,17.0,30.14,NW,315,12.0,19.0,72,-99.99,,,-99.99,,2013-02-19 11:42:00,
2013-02-19 05:52:00,25.0,18.0,30.14,WNW,292,10.0,16.0,74,-99.99,,,-99.99,,2013-02-19 11:52:00,
2013-02-19 06:01:00,25.0,17.0,30.14,WNW,292,13.0,18.0,72,-99.99,,,-99.99,,2013-02-19 12:01:00,
2013-02-19 06:12:00,25.0,17.0,30.14,WNW,292,11.0,18.0,73,-99.99,,,-99.99,,2013-02-19 12:12:00,
2013-02-19 06:22:00,25.0,17.0,30.15,West,270,12.0,18.0,73,-99.99,,,-99.99,,2013-02-19 12:22:00,
2013-02-19 06:32:00,24.0,17.0,30.14,West,270,11.0,20.0,73,-99.99,,,-99.99,,2013-02-19 12:32:00,
2013-02-19 06:42:00,24.0,17.0,30.15,WNW,292,10.0,14.0,74,-99.99,,,-99.99,,2013-02-19 12:42:00,
2013-02-19 06:52:00,24.0,16.0,30.16,NW,315,13.0,20.0,72,-99.99,,,-99.99,,2013-02-19 12:52:00,
2013-02-19 07:02:00,24.0,16.0,30.17,WNW,292,11.0,21.0,71,-99.99,,,-99.99,,2013-02-19 13:02:00,
2013-02-19 07:11:00,24.0,16.0,30.16,NW,315,14.0,19.0,69,-99.99,,,-99.99,,2013-02-19 13:11:00,
2013-02-19 07:22:00,24.0,15.0,30.17,NW,315,16.0,26.0,68,-99.99,,,-99.99,,2013-02-19 13:22:00,
2013-02-19 07:32:00,24.0,15.0,30.17,WNW,292,16.0,25.0,67,-99.99,,,-99.99,,2013-02-19 13:32:00,
2013-02-19 07:41:00,24.0,15.0,30.18,NNW,337,13.0,21.0,68,-99.99,,,-99.99,,2013-02-19 13:41:00,
2013-02-19 07:52:00,24.0,15.0,30.18,WNW,292,11.0,16.0,68,-99.99,,,-99.99,,2013-02-19 13:52:00,
2013-02-19 08:01:00,24.0,15.0,30.19,NW,315,16.0,21.0,67,-99.99,,,-99.99,,2013-02-19 14:01:00,
2013-02-19 08:11:00,25.0,15.0,30.19,WNW,292,15.0,23.0,66,-99.99,,,-99.99,,2013-02-19 14:11:00,
2013-02-19 08:21:00,24.0,14.0,30.19,WNW,292,16.0,21.0,64,-99.99,,,-99.99,,2013-02-19 14:21:00,
2013-02-19 08:32:00,25.0,15.0,30.20,NNW,337,14.0,18.0,64,-99.99,,,-99.99,,2013-02-19 14:32:00,
2013-02-19 08:42:00,24.0,13.0,30.20,WNW,292,17.0,24.0,62,-99.99,,,-99.99,,2013-02-19 14:42:00,
2013-02-19 08:52:00,25.0,13.0,30.21,NW,315,16.0,22.0,61,-99.99,,,-99.99,,2013-02-19 14:52:00,
2013-02-19 09:01:00,25.0,14.0,30.21,NW,315,16.0,23.0,62,-99.99,,,-99.99,,2013-02-19 15:01:00,
2013-02-19 09:11:00,25.0,13.0,30.21,NNW,337,14.0,21.0,58,-99.99,,,-99.99,,2013-02-19 15:11:00,
2013-02-19 09:21:00,25.0,13.0,30.22,NW,315,16.0,23.0,60,-99.99,,,-99.99,,2013-02-19 15:21:00,
2013-02-19 09:32:00,26.0,12.0,30.23,NW,315,16.0,23.0,56,-99.99,,,-99.99,,2013-02-19 15:32:00,
2013-02-19 09:42:00,26.0,13.0,30.23,WNW,292,16.0,23.0,57,-99.99,,,-99.99,,2013-02-19 15:42:00,
2013-02-19 09:52:00,25.0,11.0,30.24,WNW,292,15.0,22.0,54,-99.99,,,-99.99,,2013-02-19 15:52:00,
2013-02-19 10:02:00,25.0,12.0,30.24,NW,315,16.0,23.0,55,-99.99,,,-99.99,,2013-02-19 16:02:00,
2013-02-19 10:11:00,26.0,12.0,30.24,WNW,292,16.0,22.0,55,-99.99,,,-99.99,,2013-02-19 16:11:00,
2013-02-19 10:21:00,26.0,11.0,30.25,WNW,292,14.0,21.0,53,-99.99,,,-99.99,,2013-02-19 16:21:00,
2013-02-19 10:32:00,26.0,11.0,30.25,NW,315,14.0,19.0,53,-99.99,,,-99.99,,2013-02-19 16:32:00,
2013-02-19 10:41:00,26.0,11.0,30.25,NW,315,15.0,20.0,53,-99.99,,,-99.99,,2013-02-19 16:41:00,
2013-02-19 10:51:00,26.0,12.0,30.25,West,270,15.0,22.0,55,-99.99,,,-99.99,,2013-02-19 16:51:00,
2013-02-19 11:01:00,27.0,13.0,30.26,WNW,292,14.0,21.0,55,-99.99,,,-99.99,,2013-02-19 17:01:00,
2013-02-19 11:11:00,27.0,14.0,30.27,NW,315,13.0,17.0,56,-99.99,,,-99.99,,2013-02-19 17:11:00,
2013-02-19 11:21:00,28.0,12.0,30.27,West,270,14.0,19.0,52,-99.99,,,-99.99,,2013-02-19 17:21:00,
2013-02-19 11:32:00,27.0,13.0,30.27,WNW,292,14.0,19.0,55,-99.99,,,-99.99,,2013-02-19 17:32:00,
2013-02-19 11:41:00,27.0,11.0,30.27,NW,315,16.0,21.0,49,-99.99,,,-99.99,,2013-02-19 17:41:00,
2013-02-19 11:52:00,27.0,10.0,30.27,WNW,292,17.0,22.0,47,-99.99,,,-99.99,,2013-02-19 17:52:00,
2013-02-19 12:01:00,28.0,11.0,30.27,NW,315,14.0,21.0,49,-99.99,,,-99.99,,2013-02-19 18:01:00,
2013-02-19 12:11:00,29.0,11.0,30.27,WNW,292,12.0,16.0,47,-99.99,,,-99.99,,2013-02-19 18:11:00,
2013-02-19 12:21:00,29.0,10.0,30.27,WNW,292,14.0,19.0,45,-99.99,,,-99.99,,2013-02-19 18:21:00,
2013-02-19 12:31:00,29.0,12.0,30.27,WNW,292,10.0,18.0,47,-99.99,,,-99.99,,2013-02-19 18:31:00,
2013-02-19 12:41:00,30.0,13.0,30.27,West,270,10.0,14.0,48,-99.99,,,-99.99,,2013-02-19 18:41:00,
2013-02-19 12:51:00,30.0,11.0,30.27,WNW,292,13.0,23.0,46,-99.99,,,-99.99,,2013-02-19 18:51:00,
2013-02-19 13:01:00,30.0,12.0,30.27,West,270,13.0,18.0,46,-99.99,,,-99.99,,2013-02-19 19:01:00,
2013-02-19 13:11:00,31.0,11.0,30.27,West,270,14.0,20.0,44,-99.99,,,-99.99,,2013-02-19 19:11:00,
2013-02-19 13:21:00,31.0,10.0,30.27,WNW,292,14.0,18.0,41,-99.99,,,-99.99,,2013-02-19 19:21:00,
2013-02-19 13:31:00,32.0,11.0,30.27,NW,315,12.0,21.0,42,-99.99,,,-99.99,,2013-02-19 19:31:00,
2013-02-19 13:41:00,32.0,9.0,30.27,WNW,292,13.0,18.0,38,-99.99,,,-99.99,,2013-02-19 19:41:00,
2013-02-19 13:51:00,32.0,8.0,30.26,WNW,292,13.0,18.0,36,-99.99,,,-99.99,,2013-02-19 19:51:00,
2013-02-19 14:01:00,32.0,12.0,30.26,West,270,11.0,18.0,43,-99.99,,,-99.99,,2013-02-19 20:01:00,
2013-02-19 14:12:00,32.0,9.0,30.27,West,270,14.0,19.0,37,-99.99,,,-99.99,,2013-02-19 20:12:00,
2013-02-19 14:21:00,33.0,10.0,30.27,WNW,292,12.0,18.0,38,-99.99,,,-99.99,,2013-02-19 20:21:00,
2013-02-19 14:32:00,33.0,10.0,30.26,NW,315,15.0,22.0,38,-99.99,,,-99.99,,2013-02-19 20:32:00,
2013-02-19 14:41:00,33.0,8.0,30.26,WNW,292,12.0,18.0,35,-99.99,,,-99.99,,2013-02-19 20:41:00,
2013-02-19 14:52:00,34.0,10.0,30.27,WNW,292,11.0,17.0,36,-99.99,,,-99.99,,2013-02-19 20:52:00,
2013-02-19 15:02:00,33.0,8.0,30.27,West,270,13.0,18.0,35,-99.99,,,-99.99,,2013-02-19 21:02:00,
2013-02-19 15:11:00,34.0,8.0,30.27,West,270,11.0,18.0,32,-99.99,,,-99.99,,2013-02-19 21:11:00,
2013-02-19 15:21:00,33.0,5.0,30.27,WNW,292,15.0,23.0,30,-99.99,,,-99.99,,2013-02-19 21:21:00,
2013-02-19 15:32:00,34.0,7.0,30.27,NW,315,13.0,18.0,33,-99.99,,,-99.99,,2013-02-19 21:32:00,
2013-02-19 15:42:00,34.0,9.0,30.27,WNW,292,12.0,17.0,34,-99.99,,,-99.99,,2013-02-19 21:42:00,
2013-02-19 15:51:00,33.0,6.0,30.27,WNW,292,14.0,21.0,31,-99.99,,,-99.99,,2013-02-19 21:51:00,
2013-02-19 16:02:00,34.0,8.0,30.27,NW,315,12.0,18.0,34,-99.99,,,-99.99,,2013-02-19 22:02:00,
2013-02-19 16:11:00,33.0,7.0,30.27,WNW,292,11.0,20.0,32,-99.99,,,-99.99,,2013-02-19 22:11:00,
2013-02-19 16:21:00,33.0,6.0,30.27,WNW,292,9.0,13.0,31,-99.99,,,-99.99,,2013-02-19 22:21:00,
2013-02-19 16:32:00,33.0,5.0,30.27,WNW,292,11.0,16.0,29,-99.99,,,-99.99,,2013-02-19 22:32:00,
2013-02-19 16:41:00,33.0,6.0,30.28,WNW,292,11.0,18.0,31,-99.99,,,-99.99,,2013-02-19 22:41:00,
2013-02-19 16:51:00,33.0,6.0,30.27,NW,315,12.0,17.0,32,-99.99,,,-99.99,,2013-02-19 22:51:00,
2013-02-19 17:01:00,33.0,7.0,30.27,WNW,292,11.0,14.0,32,-99.99,,,-99.99,,2013-02-19 23:01:00,
2013-02-19 17:11:00,32.0,6.0,30.26,NW,315,10.0,13.0,32,-99.99,,,-99.99,,2013-02-19 23:11:00,
2013-02-19 17:21:00,32.0,6.0,30.26,NW,315,11.0,15.0,33,-99.99,,,-99.99,,2013-02-19 23:21:00,
2013-02-19 17:32:00,32.0,6.0,30.26,WNW,292,9.0,13.0,33,-99.99,,,-99.99,,2013-02-19 23:32:00,
2013-02-19 17:41:00,31.0,5.0,30.26,NW,315,8.0,12.0,32,-99.99,,,-99.99,,2013-02-19 23:41:00,
2013-02-19 17:52:00,30.0,7.0,30.26,NW,315,7.0,13.0,37,-99.99,,,-99.99,,2013-02-19 23:52:00,
2013-02-19 18:01:00,29.0,10.0,30.26,NW,315,5.0,8.0,44,-99.99,,,-99.99,,2013-02-20 00:01:00,
2013-02-19 18:11:00,29.0,9.0,30.26,NNW,337,4.0,8.0,44,-99.99,,,-99.99,,2013-02-20 00:11:00,
2013-02-19 18:21:00,28.0,10.0,30.26,NW,315,3.0,6.0,47,-99.99,,,-99.99,,2013-02-20 00:21:00,
2013-02-19 18:31:00,27.0,12.0,30.27,NNW,337,2.0,3.0,51,-99.99,,,-99.99,,2013-02-20 00:31:00,
2013-02-19 18:41:00,27.0,11.0,30.26,NNW,337,4.0,7.0,49,-99.99,,,-99.99,,2013-02-20 00:41:00,
2013-02-19 18:51:00,27.0,11.0,30.27,NW,315,3.0,6.0,52,-99.99,,,-99.99,,2013-02-20 00:51:00,
2013-02-19 19:02:00,27.0,10.0,30.27,NW,315,2.0,4.0,49,-99.99,,,-99.99,,2013-02-20 01:02:00,
2013-02-19 19:11:00,26.0,12.0,30.27,NNW,337,2.0,3.0,54,-99.99,,,-99.99,,2013-02-20 01:11:00,
2013-02-19 19:21:00,26.0,12.0,30.27,NNW,337,2.0,3.0,56,-99.99,,,-99.99,,2013-02-20 01:21:00,
2013-02-19 19:32:00,26.0,13.0,30.27,NW,315,2.0,3.0,58,-99.99,,,-99.99,,2013-02-20 01:32:00,
2013-02-19 19:42:00,25.0,11.0,30.28,NW,315,3.0,4.0,55,-99.99,,,-99.99,,2013-02-20 01:42:00,
2013-02-19 19:51:00,25.0,10.0,30.28,NW,315,3.0,4.0,53,-99.99,,,-99.99,,2013-02-20 01:51:00,
2013-02-19 20:01:00,25.0,10.0,30.27,NNW,337,3.0,6.0,54,-99.99,,,-99.99,,2013-02-20 02:01:00,
2013-02-19 20:11:00,25.0,11.0,30.28,NW,315,4.0,6.0,55,-99.99,,,-99.99,,2013-02-20 02:11:00,
2013-02-19 20:21:00,25.0,9.0,30.29,NW,315,4.0,7.0,52,-99.99,,,-99.99,,2013-02-20 02:21:00,
2013-02-19 20:32:00,24.0,11.0,30.29,NW,315,5.0,7.0,56,-99.99,,,-99.99,,2013-02-20 02:32:00,
2013-02-19 20:42:00,24.0,11.0,30.30,NW,315,4.0,7.0,56,-99.99,,,-99.99,,2013-02-20 02:42:00,
2013-02-19 20:52:00,24.0,10.0,30.30,NNW,337,4.0,5.0,55,-99.99,,,-99.99,,2013-02-20 02:52:00,
2013-02-19 21:01:00,23.0,10.0,30.30,NW,315,3.0,5.0,56,-99.99,,,-99.99,,2013-02-20 03:01:00,
2013-02-19 21:12:00,23.0,10.0,30.30,NW,315,2.0,4.0,58,-99.99,,,-99.99,,2013-02-20 03:12:00,
2013-02-19 21:22:00,23.0,11.0,30.31,NW,315,4.0,5.0,61,-99.99,,,-99.99,,2013-02-20 03:22:00,
2013-02-19 21:32:00,23.0,12.0,30.31,NNW,337,3.0,4.0,63,-99.99,,,-99.99,,2013-02-20 03:32:00,
2013-02-19 21:41:00,22.0,11.0,30.32,WNW,292,0.0,-999.0,62,-99.99,,,-99.99,,2013-02-20 03:41:00,
2013-02-19 21:51:00,22.0,9.0,30.31,East,90,4.0,6.0,57,-99.99,,,-99.99,,2013-02-20 03:51:00,
2013-02-19 22:01:00,22.0,10.0,30.30,East,90,4.0,6.0,60,-99.99,,,-99.99,,2013-02-20 04:01:00,
2013-02-19 22:11:00,22.0,11.0,30.30,NNE,22,4.0,7.0,61,-99.99,,,-99.99,,2013-02-20 04:11:00,
2013-02-19 22:21:00,22.0,11.0,30.30,NNE,22,3.0,6.0,63,-99.99,,,-99.99,,2013-02-20 04:21:00,
2013-02-19 22:31:00,22.0,10.0,30.30,East,90,4.0,7.0,61,-99.99,,,-99.99,,2013-02-20 04:31:00,
2013-02-19 22:41:00,21.0,10.0,30.31,NNW,337,2.0,4.0,61,-99.99,,,-99.99,,2013-02-20 04:41:00,
2013-02-19 22:51:00,21.0,11.0,30.32,NNW,337,3.0,5.0,64,-99.99,,,-99.99,,2013-02-20 04:51:00,
2013-02-19 23:02:00,21.0,10.0,30.32,East,90,2.0,4.0,62,-99.99,,,-99.99,,2013-02-20 05:02:00,
2013-02-19 23:12:00,21.0,11.0,30.33,East,90,2.0,3.0,64,-99.99,,,-99.99,,2013-02-20 05:12:00,
2013-02-19 23:22:00,22.0,10.0,30.33,NNW,337,3.0,4.0,59,-99.99,,,-99.99,,2013-02-20 05:22:00,
2013-02-19 23:32:00,22.0,10.0,30.34,NW,315,2.0,5.0,61,-99.99,,,-99.99,,2013-02-20 05:32:00,
2013-02-19 23:43:00,21.0,11.0,30.35,WNW,292,0.0,-999.0,63,-99.99,,,-99.99,,2013-02-20 05:43:00,
2013-02-19 23:52:00,20.0,11.0,30.34,NNW,337,3.0,4.0,67,-99.99,,,-99.99,,2013-02-20 05:52:00,